User: anonymous   Login
Location: Larkspur
(54.4391°N, 113.7691°W)
Time: 07:33:09
(UTC+00:00)
Language:

METEOR M2 - Orbit

View from above orbital plane
View from above orbital plane
View from above satellite
View from above satellite

Ground track
Ground track

The orbit data is extracted from the following two-line orbital elements,

1 40069U 14037A   23336.93202630  .00000250  00000-0  13461-3 0  9991
2 40069  98.4286 335.1125 0005220 201.3376 158.7585 14.20851390487617
Epoch (UTC): 02 December 2023 22:22:07
Eccentricity: 0.0005220
inclination: 98.4286°
perigee height: 819 km
apogee height: 826 km
right ascension of ascending node: 335.1125°
argument of perigee: 201.3376°
revolutions per day: 14.20851390
mean anomaly at epoch: 158.7585°
orbit number at epoch: 48761

The dashed part of the orbit path shows where the satellite is in the earth's shadow,  

DLR